Location: Unsp...
(0.0000°N, 0.0000°E)
Time: 03:53:02
(UTC+01:00)

Daily predictions for brighter satellites

Satellite Brightness Start Highest point End
(mag) Time Altitude Azimuth Time Altitude Azimuth Time Altitude Azimuth
FALCON 9 R/B 4.2 03:41:33 36° S 03:41:33 36° S 03:52:21 10° SE
Milstar 3 Cent rocket 3.9 03:53:00 45° S 03:53:00 45° S 03:58:05 10° SE
Atlas Centaur 2 4.4 03:59:18 18° SSW 04:04:33 34° SSE 04:11:57 10° E
USA 234 4.3 04:00:55 10° SSE 04:04:53 38° S 04:04:53 38° S
ARIANE 5 DEB (SYLDA) 3.5 04:22:21 59° ENE 04:22:21 59° ENE 04:30:15 10° E
ATLAS 3B CENTAUR R/B 4.3 04:20:48 18° SSW 04:21:34 18° S 04:27:38 10° SE
ADEOS Rocket 4.2 04:32:15 37° SW 04:32:15 37° SW 04:36:36 10° SSW
Cosmos 1603 4.2 04:42:06 10° S 04:47:44 59° ESE 04:53:19 10° NNE
ADEOS II 1.9 04:51:54 87° SSW 04:51:54 87° SSW 04:57:05 10° SSW
EO 1 Del DPAF 4.5 04:48:31 10° SSE 04:51:13 40° SE 04:51:13 40° SE
Centaur D-1A AC-35 4.2 04:52:53 28° N 04:54:43 33° NE 05:08:50 10° ESE
Okean-O 3.0 04:56:19 39° NE 04:57:47 62° ESE 05:02:10 10° S
Meteor 2-6 Rocket 4.3 05:03:31 54° WSW 05:03:31 54° WSW 05:08:38 10° S
Cosmos 1378 Rocket 4.4 05:01:26 30° NNE 05:03:17 49° E 05:07:35 10° SSE
Cosmos 372 Rocket 3.7 05:04:44 71° WNW 05:05:03 74° WSW 05:10:08 10° S
Aureole 3 Rocket 4.5 05:08:25 20° S 05:08:25 20° S 05:09:29 10° S
Meteor 1-31 Rocket 3.4 05:07:56 18° NNE 05:10:31 53° ESE 05:14:16 10° S
Cosmos 44 4.3 05:05:25 10° S 05:10:36 53° ESE 05:15:50 10° NE
Feng Yun 1-1 Rocket 4.0 05:07:24 10° NNE 05:12:50 87° WNW 05:18:14 10° SSW
CZ-3 Stage 3 3.2 05:16:06 11° NE 05:16:06 11° NE 05:16:17 10° NE
Cosmos 1844 Rocket 2.6 05:12:32 46° NW 05:14:10 71° WSW 05:19:48 10° S
SL-16 R/B 4.2 05:11:33 10° SW 05:13:49 16° SW 05:13:49 16° SW
ARIANE 5 R/B 3.4 05:19:21 49° WNW 05:20:16 65° N 05:28:02 10° E
Cosmos 1844 3.7 05:28:15 26° NNW 05:31:32 67° WSW 05:37:15 10° S
Ariane H10+ 2.7 05:27:26 20° W 05:34:34 61° SSW 05:38:20 10° ESE
CZ-2C R/B 3.7 05:32:43 10° S 05:37:21 62° WSW 05:40:30 19° NNW
Meteor 1-27 Rocket 4.3 05:38:16 26° WNW 05:40:10 33° W 05:45:08 10° SSW
ASTEX 1 3.5 05:36:45 10° S 05:41:31 54° W 05:45:56 12° NNW
Okean 3 3.7 05:42:45 24° NW 05:44:51 43° W 05:48:50 10° SSW
Cosmos 2151 Rocket 3.9 05:41:33 10° SSW 05:45:53 45° W 05:50:11 10° NNW
USA 229 DEB 3.7 05:39:12 10° SSW 05:46:06 88° ESE 05:52:58 10° NNE
USA 229 3.7 05:39:17 10° SSW 05:46:12 87° ESE 05:53:04 10° NNE
Cosmos 44 Rocket 4.2 05:43:04 10° SW 05:47:23 27° WNW 05:51:44 10° N
Cosmos 2278 Rocket 2.2 05:42:19 10° NNW 05:47:59 88° WSW 05:53:40 10° SSE
Cosmos 192 4.3 05:43:46 10° SSW 05:48:35 56° WNW 05:53:22 10° N
CZ-4B R/B 4.5 05:44:42 10° N 05:48:53 40° WNW 05:52:58 10° SSW
Cosmos 2181 Rocket 4.0 05:45:54 10° N 05:52:13 77° W 05:58:26 10° S
ARIANE 5 R/B 2.6 05:48:22 19° WNW 05:52:17 36° NNW 05:55:16 10° ENE
XTE 2.8 05:52:07 29° WNW 05:53:31 89° NE 05:56:33 10° ESE
Atlas Centaur 2 3.0 05:46:05 10° WSW 05:54:43 82° NNW 06:02:31 10° NE
Cosmos 2084 3.8 05:52:33 10° SSW 05:56:49 64° ESE 06:00:49 10° NNE
NOAA 6 4.4 05:59:29 10° N 06:04:19 43° WNW 06:09:11 10° SSW
Thor Agena Rocket 3.4 06:01:01 10° S 06:06:04 79° WSW 06:11:06 10° NNW
Cosmos 1602 3.7 06:04:44 10° S 06:08:39 76° W 06:12:34 10° N
ARIANE 5 DEB (SYLDA) 2.6 06:03:29 11° W 06:08:55 73° S 06:11:21 10° E
Cosmos 1975 Rocket 3.8 06:05:12 10° NNW 06:09:13 33° W 06:13:15 10° SSW
Ariane H10+ 3.1 06:07:37 14° NW 06:09:20 24° N 06:11:51 10° ENE
ARIANE 5 R/B 3.6 06:05:22 11° W 06:11:00 48° N 06:14:21 10° ENE
Cosmos 1633 2.5 06:09:20 10° S 06:13:01 75° W 06:16:39 10° N
Ariane H10-3 3.4 06:09:43 10° WNW 06:15:37 31° NNW 06:18:01 10° NE
DELTA 2 R/B (2) 4.4 06:14:49 10° WSW 06:16:48 22° NW 06:18:21 10° NNE
Okean 1 Rocket 3.3 06:19:13 10° SSW 06:23:32 49° W 06:27:48 10° NNW
Cosmos 1536 Rocket 3.6 06:21:34 10° N 06:25:56 87° E 06:30:18 10° S
Okean 1 3.5 06:22:41 10° N 06:26:42 78° E 06:30:41 10° S
Cosmos 1812 2.8 06:24:47 10° NNW 06:28:34 57° W 06:32:23 10° S
COSMO-SKYMED 1 3.5 06:25:39 10° SSE 06:29:52 51° ENE 06:34:04 10° N
Delta 2 Rocket 3.9 06:25:17 10° WSW 06:31:25 85° SSE 06:37:30 10° ENE
ATLAS 2A CENTAUR R/B 3.5 06:18:08 10° WSW 06:32:55 86° NNW 06:36:22 10° ENE
CZ-3 R/B 3.8 06:23:46 10° W 06:34:05 17° NW 06:39:12 10° N
Atlas 2A Centaur Rocket 4.1 06:16:03 10° WSW 06:34:55 57° SSE 06:38:59 10° E
